Probability
3 0 0 0 3 3 3 0 3 6 6 3 3 3 3 3 0 0 0 0 0 0 0 0 0 0 0 0 0 0 0 0 0 0 0 0 0 0 0 0 0 0 0
3 3 3 3 3 0 0 3 3 6 3 3 3 6 3 3 3 3 3 3 3 3 0 0 0 0 0 0 0 0 0 0 0 0 0 0 0 0 0 0 0 0 0
3 3 3 3 3 3 3 0 0 0 0 0 0 0 0 0 0 0 0 3 3 0 0 0 0 0 0 0 0 0 0 0 0 0 0 0 0 0 0 0 0 0 0
0 0 0 0 0 0 0 0 0 0 0 3 3 3 0 0 0 0 0 0 0 0 0 0 0 0 0 0 0 0 0 0 0 0 0 0 0 0 0 0 0 0 0
0 0 0 0 0 0 0 0 0 0 0 0 0 3 3 0 0 0 0 0 0 0 0 0 0 0 0 0 0 0 0 0 0 0 0 0 0 0 0 0 0 0 0
0 0 0 0 0 0 0 0 0 0 0 0 0 0 0 0 0 0 0 0 0 0 0 0 0 0 0 0 0 0 0 0 0 0 0 0 0 0 0 0 0 0 0
0 0 0 0 0 0 0 0 0 0 0 0 0 0 0 0 0 0 0 0 0 0 0 0 0 0 0 0 0 0 0 0 0 0 0 0 0 0 0 0 0 0 0
0 0 0 0 0 0 0 0 0 0 0 0 0 0 0 0 0 0 0 0 0 0 0 0 0 0 0 0 0 0 0 0 0 0 0 0 0 0 0 0 0 0 0
0 0 0 0 0 0 0 0 0 0 0 0 0 0 0 0 0 0 0 0 0 0 0 0 0 0 0 0 0 0 0 0 0 0 0 0 0 0 0 0 0 0 0
0 0 0 0 0 0 0 0 0 0 0 0 0 0 0 0 0 0 0 0 0 0 0 0 0 0 0 0 0 0 0 0 0 0 0 0 0 0 0 0 0 0 0
0 0 0 0 0 0 0 0 0 0 0 0 0 0 0 0 0 0 0 0 0 0 0 0 0 0 0 0 0 0 0 0 0 0 0 0 0 0 0 0 0 0 0
0 0 0 0 0 0 0 0 0 0 0 0 0 0 0 0 0 0 0 0 0 0 0 0 0 0 0 0 0 0 0 0 0 0 0 0 0 0 0 0 0 0 0
0 0 0 0 0 0 0 0 0 0 0 0 0 0 0 0 0 0 0 0 0 0 0 0 0 0 0 0 0 0 0 0 0 0 0 0 0 0 0 0 0 0 0
0 0 0 0 0 0 0 0 0 0 0 0 0 0 0 0 0 0 0 0 0 0 0 0 0 0 0 0 0 0 0 0 0 0 0 0 0 0 0 0 0 0 0
0 0 0 0 0 0 0 0 0 0 0 0 0 0 0 0 0 0 0 0 0 0 0 0 0 0 0 0 0 0 0 0 0 0 0 0 0 0 0 0 0 0 0
0 0 0 0 0 0 0 0 0 0 0 0 0 0 0 0 0 0 0 0 0 0 0 0 0 0 0 0 0 0 0 0 0 0 0 0 0 0 0 0 0 0 0
0 0 0 0 0 0 0 0 0 0 0 0 0 0 0 0 0 0 0 0 0 0 0 0 0 0 0 0 0 0 0 0 0 0 0 0 0 0 0 0 0 0 0
0 0 0 0 0 0 0 0 0 0 0 0 0 0 0 0 0 0 0 0 0 0 0 0 0 0 0 0 0 0 0 0 0 0 0 0 0 0 0 0 0 0 0
0 0 0 0 0 0 0 0 0 0 0 0 0 0 0 0 0 0 0 0 0 0 0 0 0 0 0 0 0 0 0 0 0 0 0 0 0 0 0 0 0 0 0
0 0 0 0 0 0 0 0 0 0 0 0 0 0 0 0 0 0 0 0 0 0 0 0 0 0 0 0 0 0 0 0 0 0 0 0 0 0 0 0 0 0 0
0 0 0 0 0 0 0 0 0 0 0 0 0 0 0 0 0 0 0 0 0 0 0 0 0 0 0 0 0 0 0 0 0 0 0 0 0 0 0 0 0 0 0
0 0 0 0 0 0 0 0 0 0 0 0 0 0 0 0 0 0 0 0 0 0 0 0 0 0 0 0 0 0 0 0 0 0 0 0 0 0 0 0 0 0 0
0 0 0 0 0 0 0 0 0 0 0 0 0 0 0 0 0 0 0 0 0 0 0 0 0 0 0 0 0 0 0 0 0 0 0 0 0 0 0 0 0 0 0
0 0 0 0 0 0 0 0 0 0 0 0 0 0 0 0 0 0 0 0 0 0 0 0 0 0 0 0 0 0 0 0 0 0 0 0 0 0 0 0 0 0 0
0 0 0 0 0 3 3 3 0 0 0 3 3 3 0 0 0 0 0 0 0 0 0 0 0 0 0 0 0 0 0 0 0 0 0 0 0 0 0 0 0 0 0
0 0 0 0 0 3 3 3 0 0 3 3 3 3 3 0 0 0 0 0 0 0 0 0 0 0 0 0 0 0 0 0 0 0 0 0 0 0 0 0 0 0 0
Height
5844 5844 5845 5845 5845 5845 5845 5845 5845 5845 5845 5845 5845 5846 5846 5846 5846 5846 5846 5845 5845 5844 5844 5843 5843 5842 5842 5841 5840 5839 5838 5837 5836 5835 5834 5833 5832 5830 5829 5828 5826 5825 5823
5842 5842 5843 5843 5843 5843 5843 5843 5843 5843 5843 5843 5844 5844 5844 5844 5844 5844 5844 5844 5843 5843 5842 5841 5841 5840 5839 5838 5837 5836 5835 5834 5833 5832 5830 5829 5828 5826 5825 5823 5822 5820 5819
5840 5840 5840 5840 5840 5841 5841 5841 5841 5842 5841 5842 5842 5842 5842 5842 5842 5842 5842 5842 5841 5840 5840 5839 5838 5837 5836 5835 5834 5833 5832 5831 5829 5828 5827 5825 5824 5822 5821 5819 5817 5816 5814
5837 5837 5838 5838 5838 5838 5838 5839 5839 5839 5839 5839 5839 5840 5840 5840 5840 5840 5839 5839 5838 5837 5837 5836 5835 5834 5833 5832 5830 5829 5828 5827 5825 5824 5823 5821 5820 5818 5816 5814 5813 5811 5808
5834 5835 5835 5835 5835 5835 5835 5836 5836 5836 5837 5837 5837 5837 5837 5837 5837 5836 5836 5835 5835 5834 5833 5832 5831 5830 5829 5828 5827 5825 5824 5823 5822 5820 5818 5817 5815 5813 5811 5809 5808 5805 5803
5831 5831 5831 5831 5831 5832 5832 5833 5833 5834 5834 5834 5834 5834 5834 5834 5833 5833 5832 5832 5831 5830 5829 5828 5828 5826 5825 5824 5823 5821 5820 5819 5817 5816 5814 5812 5810 5808 5806 5804 5802 5800 5797
5827 5827 5827 5827 5827 5828 5829 5829 5830 5830 5830 5830 5830 5830 5830 5830 5829 5829 5828 5828 5827 5826 5825 5824 5823 5822 5821 5820 5819 5817 5816 5814 5812 5811 5809 5807 5805 5803 5801 5798 5796 5793 5790
5823 5823 5823 5823 5824 5824 5825 5825 5826 5826 5826 5826 5826 5826 5825 5825 5825 5825 5824 5823 5822 5822 5821 5820 5819 5818 5817 5816 5814 5812 5811 5809 5807 5805 5803 5801 5798 5796 5794 5792 5789 5786 5783
5819 5819 5819 5819 5819 5820 5820 5821 5821 5822 5822 5822 5822 5821 5821 5821 5820 5820 5819 5818 5818 5817 5816 5815 5814 5813 5812 5810 5809 5807 5806 5804 5802 5799 5797 5795 5792 5790 5787 5785 5782 5779 5776
5814 5814 5813 5814 5815 5815 5815 5816 5816 5817 5817 5817 5817 5817 5816 5816 5815 5815 5814 5813 5813 5812 5811 5810 5809 5808 5806 5805 5803 5802 5800 5798 5796 5794 5791 5789 5786 5783 5781 5778 5775 5772 5768
5809 5808 5808 5808 5809 5809 5810 5810 5811 5811 5812 5812 5812 5812 5811 5810 5810 5809 5809 5808 5808 5807 5806 5805 5803 5802 5801 5799 5798 5796 5794 5792 5790 5788 5785 5783 5780 5777 5774 5771 5768 5764 5761
5803 5802 5802 5802 5803 5803 5804 5804 5805 5805 5806 5806 5806 5806 5805 5805 5805 5804 5803 5802 5802 5801 5800 5799 5798 5796 5795 5793 5792 5790 5788 5786 5784 5781 5779 5776 5773 5770 5767 5764 5760 5756 5753
5796 5796 5796 5796 5797 5797 5798 5798 5799 5799 5799 5799 5799 5799 5799 5799 5799 5798 5797 5796 5796 5795 5794 5793 5791 5790 5789 5787 5785 5783 5781 5779 5777 5775 5772 5769 5766 5763 5760 5756 5753 5749 5745
5790 5789 5790 5790 5790 5790 5791 5791 5792 5792 5792 5793 5793 5793 5793 5792 5792 5791 5791 5790 5789 5788 5787 5786 5785 5783 5782 5780 5778 5777 5775 5772 5770 5767 5765 5762 5759 5756 5752 5749 5745 5741 5737
5782 5782 5782 5783 5783 5783 5784 5784 5784 5785 5785 5786 5786 5786 5786 5785 5785 5784 5783 5783 5782 5781 5780 5779 5778 5777 5775 5773 5771 5769 5767 5765 5763 5760 5757 5754 5751 5748 5744 5740 5737 5733 5729
5776 5775 5775 5775 5775 5776 5776 5776 5776 5777 5777 5777 5777 5778 5777 5777 5777 5776 5776 5775 5774 5774 5773 5772 5770 5769 5767 5766 5764 5762 5760 5757 5755 5752 5749 5746 5743 5739 5736 5732 5728 5724 5720
5768 5768 5768 5767 5767 5767 5768 5768 5768 5769 5769 5769 5769 5769 5769 5769 5768 5768 5768 5767 5766 5765 5765 5764 5763 5761 5760 5758 5756 5754 5752 5749 5747 5744 5741 5737 5734 5731 5727 5724 5720 5716 5711
5760 5760 5759 5759 5759 5759 5759 5760 5760 5760 5761 5761 5761 5761 5760 5760 5760 5759 5759 5758 5758 5757 5756 5755 5754 5753 5751 5749 5747 5745 5743 5741 5738 5735 5732 5729 5726 5722 5719 5715 5711 5707 5702
5752 5751 5751 5751 5751 5751 5751 5751 5751 5752 5752 5752 5752 5752 5751 5751 5750 5750 5750 5749 5749 5748 5747 5746 5745 5744 5742 5741 5739 5737 5734 5732 5729 5726 5723 5720 5716 5713 5709 5705 5701 5697 5693
5743 5743 5742 5742 5742 5742 5742 5742 5743 5743 5743 5743 5743 5743 5742 5742 5741 5741 5741 5741 5740 5739 5738 5737 5736 5734 5733 5731 5729 5727 5725 5723 5720 5717 5714 5711 5707 5703 5700 5696 5692 5688 5684
5734 5734 5733 5733 5733 5733 5733 5733 5733 5734 5734 5734 5734 5733 5733 5733 5732 5732 5731 5731 5730 5729 5728 5727 5726 5724 5723 5721 5719 5717 5715 5713 5710 5707 5704 5701 5697 5694 5690 5686 5682 5678 5674
5725 5724 5724 5724 5723 5723 5723 5724 5724 5724 5724 5724 5724 5723 5723 5722 5722 5722 5721 5721 5720 5719 5718 5717 5716 5714 5713 5711 5709 5707 5704 5702 5700 5697 5694 5690 5687 5683 5680 5676 5672 5668 5664
5715 5714 5714 5713 5713 5713 5713 5713 5713 5714 5714 5714 5713 5713 5713 5712 5712 5711 5711 5710 5709 5709 5707 5706 5705 5704 5702 5700 5698 5696 5694 5692 5689 5686 5683 5680 5676 5673 5670 5666 5662 5658 5654
5705 5704 5704 5703 5703 5702 5702 5702 5703 5703 5703 5703 5702 5702 5702 5702 5701 5701 5700 5699 5699 5698 5696 5695 5694 5693 5691 5689 5687 5685 5683 5680 5678 5675 5672 5669 5666 5662 5659 5655 5651 5647 5644
5694 5694 5694 5693 5692 5692 5691 5691 5692 5692 5692 5691 5691 5691 5691 5690 5690 5689 5689 5688 5687 5686 5685 5684 5682 5681 5679 5677 5675 5673 5671 5669 5666 5663 5660 5657 5654 5651 5648 5644 5640 5637 5633
5684 5683 5683 5682 5682 5681 5681 5680 5680 5680 5680 5680 5680 5679 5679 5678 5678 5677 5676 5676 5675 5674 5673 5671 5670 5669 5667 5665 5663 5661 5659 5656 5654 5651 5648 5645 5642 5639 5636 5633 5629 5625 5622
Wind_Speed
9 9 9 8 8 8 8 7 7 7 7 7 7 7 7 7 7 7 8 8 8 8 8 9 9 9 10 10 11 11 12 12 13 14 14 14 15 16 16 17 17 18 19
9 9 9 8 8 8 8 8 7 7 7 7 7 8 7 7 8 8 8 8 9 9 9 10 10 11 11 11 12 12 13 14 14 15 15 16 16 16 17 18 18 19 20
10 9 9 10 9 9 9 8 8 8 8 8 8 8 8 8 9 9 9 10 10 11 11 12 12 12 13 13 13 14 14 15 15 16 16 16 17 17 18 19 19 20 21
11 10 11 11 11 10 9 9 9 9 9 9 9 9 9 10 10 10 11 11 12 12 13 13 13 13 14 14 14 15 15 15 16 16 16 17 17 18 19 19 20 21 22
11 12 11 12 12 11 10 10 10 10 10 10 10 10 11 11 11 12 13 13 14 14 14 13 13 14 14 15 15 15 15 16 16 17 17 18 19 19 20 21 21 22 22
13 13 13 13 12 12 11 11 11 12 12 11 11 12 12 12 13 13 14 14 14 14 15 15 15 15 15 15 16 16 16 17 18 18 19 19 21 21 21 22 22 23 24
14 14 14 14 13 13 13 13 13 13 13 13 13 14 14 14 14 15 15 15 15 15 15 16 16 16 16 16 17 17 18 19 20 20 20 21 22 22 23 23 24 24 25
15 16 16 15 14 14 14 14 14 15 15 15 15 15 15 16 16 16 16 16 16 16 17 17 17 17 17 17 18 19 20 20 20 21 21 22 23 23 24 25 25 26 27
16 16 16 16 16 16 16 16 15 16 16 16 16 16 16 17 17 17 17 17 16 16 17 17 18 18 18 19 20 20 20 20 20 21 22 22 24 24 25 26 27 27 28
17 17 17 17 17 17 17 17 17 17 17 17 17 17 17 17 17 18 18 17 17 17 18 19 19 19 19 20 20 21 21 21 21 22 22 23 24 25 26 27 28 28 29
19 19 18 18 19 19 19 19 19 19 19 19 19 19 19 19 18 18 18 18 19 20 19 19 19 20 20 21 21 22 22 23 23 24 24 24 25 26 27 28 29 29 30
20 20 19 19 20 20 20 20 21 21 21 21 20 20 20 20 20 19 19 20 20 20 20 20 20 21 21 22 23 24 24 24 24 25 26 25 25 26 27 28 29 30 31
21 21 21 21 21 21 21 22 22 22 23 23 22 22 21 21 20 20 21 21 21 21 21 22 22 23 23 23 24 25 25 25 26 26 26 27 27 28 28 29 31 31 32
22 22 22 22 23 23 23 23 24 23 23 24 23 23 22 22 22 22 22 22 23 23 24 24 24 24 24 25 25 25 26 26 26 27 27 28 29 29 29 30 30 31 31
22 22 23 23 24 24 24 24 24 25 24 24 24 24 24 23 23 24 24 24 25 25 25 26 25 25 25 25 25 26 26 26 27 27 28 28 29 30 29 30 30 31 31
23 23 24 24 25 25 24 25 25 26 26 26 26 27 27 26 25 25 25 25 25 25 26 26 26 26 26 26 26 26 26 27 28 28 29 30 30 30 29 29 30 31 32
25 24 24 24 25 26 26 26 26 26 26 26 26 27 27 27 27 26 26 26 26 26 26 25 26 26 26 26 27 27 28 28 29 30 30 30 30 30 30 31 32 33 33
26 25 25 25 25 26 26 26 26 26 27 27 27 27 28 29 28 28 28 28 28 27 27 27 26 27 28 28 28 28 29 30 30 30 30 31 31 31 32 32 33 34 34
27 27 26 26 26 26 26 26 26 27 28 28 28 28 29 30 30 29 29 29 28 28 28 28 28 29 30 30 30 30 30 31 31 32 32 32 32 33 33 33 34 34 34
28 28 28 28 28 27 27 27 27 28 28 28 29 29 30 30 30 30 30 30 30 30 30 30 30 30 31 32 32 33 33 33 32 32 33 33 34 34 34 34 34 34 34
29 29 29 29 29 29 29 29 28 29 29 29 30 30 31 31 31 31 32 32 32 32 32 32 32 32 33 33 34 34 34 34 34 34 34 34 35 35 35 35 35 35 35
30 30 30 30 30 30 30 30 30 30 30 31 31 31 32 32 32 32 32 32 32 32 33 34 34 34 34 34 34 34 34 35 35 34 35 35 35 35 35 35 35 36 36
31 31 31 32 32 32 32 32 32 31 32 32 32 32 32 32 32 32 33 33 33 34 34 34 35 34 34 34 35 35 35 35 35 35 35 35 35 36 36 36 36 37 37
33 33 32 32 33 33 32 33 33 33 33 33 33 33 33 32 33 33 34 34 35 35 35 35 35 35 35 36 36 36 36 36 36 36 36 36 36 37 37 37 37 38 38
34 34 34 34 34 34 34 34 34 34 34 34 34 35 35 35 35 35 35 36 36 36 36 37 37 36 37 37 37 38 38 38 38 37 37 38 38 38 38 38 38 39 39
35 35 35 35 35 34 34 34 34 34 34 35 35 36 36 36 36 36 36 37 37 37 37 37 38 38 38 38 38 38 39 39 39 39 39 39 39 39 39 39 39 39 39
Wind_Direction
286 286 286 283 282 287 291 287 286 289 290 289 289 285 281 284 287 291 293 300 303 302 303 304 306 307 306 306 305 305 306 306 305 305 304 304 305 305 305 304 303 303 304
283 283 285 285 285 284 286 289 288 286 287 287 290 285 283 286 290 291 293 298 301 302 301 302 304 304 304 306 306 306 305 305 304 305 305 304 304 304 306 306 305 303 303
279 280 284 284 282 280 279 284 286 287 285 284 285 283 283 284 285 290 292 298 297 296 297 298 301 302 303 303 305 306 306 305 303 304 305 305 305 305 306 306 306 305 305
280 281 283 282 278 274 273 277 281 286 287 283 279 282 282 281 282 287 291 294 296 296 294 295 297 298 300 301 304 305 305 306 306 304 304 305 305 306 306 306 305 306 307
277 277 279 281 275 271 270 272 278 282 285 286 281 283 285 282 283 285 287 290 292 293 294 294 295 298 299 299 302 304 304 305 306 306 306 305 305 304 306 306 305 306 306
277 275 275 276 273 271 270 272 277 280 282 285 283 284 285 283 283 285 288 291 291 292 293 293 295 297 300 300 299 300 303 304 305 305 304 304 304 304 305 306 306 306 306
279 275 276 276 274 272 272 273 276 277 280 283 283 282 281 283 285 287 289 290 289 291 291 292 292 294 297 300 301 301 302 303 303 303 303 304 305 304 305 305 306 306 307
283 278 275 273 272 272 272 272 275 277 279 282 283 283 282 282 284 286 289 289 288 288 289 289 289 291 295 298 300 301 301 301 302 303 304 305 305 306 307 306 305 306 307
284 280 274 271 270 270 271 271 274 276 278 282 283 283 282 282 283 285 288 287 288 289 290 290 289 291 292 294 297 300 301 302 304 304 305 306 307 307 307 308 307 307 308
282 279 274 271 268 269 270 270 272 275 278 281 283 282 281 282 283 285 285 285 286 289 290 290 290 291 292 294 297 299 301 302 305 307 307 308 308 308 307 308 308 308 309
281 279 274 271 269 268 269 269 271 274 276 278 280 281 280 279 281 283 283 283 284 287 289 289 290 292 292 294 297 299 299 301 303 305 306 306 307 308 307 308 308 308 309
282 280 275 272 270 270 270 269 271 272 274 274 277 279 280 280 280 283 284 284 285 287 289 290 290 291 294 295 296 297 299 300 301 302 304 305 307 308 308 308 309 309 310
281 279 276 273 272 273 272 271 271 272 274 273 275 277 278 278 279 281 283 285 285 286 287 288 290 292 293 294 296 297 298 300 300 301 303 304 305 307 307 308 308 309 310
280 278 275 273 273 273 273 272 270 270 272 272 274 275 276 277 277 279 281 283 283 285 286 287 288 289 291 292 293 295 297 299 301 302 303 304 305 306 307 307 308 309 310
279 278 276 275 275 273 273 272 270 270 271 272 272 274 276 276 277 278 278 280 282 282 284 286 286 288 290 291 293 294 295 296 299 300 302 303 305 306 307 307 308 309 309
279 278 277 276 274 273 271 271 270 269 270 271 272 273 274 274 276 277 277 279 281 282 284 287 287 287 289 291 291 293 295 297 298 300 301 303 305 306 307 308 310 310 310
280 279 278 276 274 273 272 271 269 268 270 271 272 274 273 274 274 275 276 278 279 282 284 286 286 287 288 289 290 292 294 296 298 301 303 304 304 305 306 307 308 309 310
280 279 279 277 275 275 273 271 268 268 270 272 273 274 275 274 274 274 276 278 279 281 283 284 285 285 286 288 290 292 294 296 298 299 301 303 304 304 305 306 307 308 309
281 281 280 279 276 275 275 272 270 270 271 271 273 274 274 273 275 276 277 279 279 281 282 283 284 285 286 287 289 290 292 295 297 299 300 301 301 302 304 305 306 307 308
281 281 281 280 277 275 275 273 271 271 272 272 273 274 274 274 275 276 277 279 280 281 282 282 283 284 285 286 287 289 291 293 295 298 299 300 301 302 303 304 305 306 307
281 281 281 281 279 276 275 273 271 272 272 274 274 274 274 274 274 274 276 277 279 281 282 283 283 283 285 286 288 289 291 292 294 296 298 300 300 301 302 303 304 305 306
280 279 279 280 279 277 275 273 273 274 276 276 275 275 274 274 274 275 276 276 278 279 280 282 284 284 285 287 289 289 290 291 293 295 297 298 299 300 301 302 303 304 305
279 279 279 279 279 277 274 273 273 273 276 277 276 276 277 276 275 275 276 277 279 280 282 283 285 285 286 287 289 290 291 292 293 295 296 296 298 300 301 302 303 303 304
278 278 278 279 280 277 275 274 274 274 275 275 276 276 277 277 276 276 276 277 279 280 281 282 284 284 285 286 288 289 290 291 292 293 294 295 296 298 300 301 301 302 302
276 277 278 279 279 278 276 275 273 273 273 273 275 275 276 276 276 277 278 278 279 280 281 282 282 283 285 286 287 288 289 290 291 292 293 294 295 297 298 299 300 301 302
276 276 277 279 279 278 276 275 274 274 274 275 275 275 276 277 278 278 278 278 279 280 281 282 282 283 284 285 287 287 289 289 290 291 292 293 295 296 296 297 298 300 301